Theta_e
310 310 310 309 307 305 304 303 302 301 300 299 299 297 295 293 293 293 293 290 291 290 290 289 289 290 290 290 290 289 290 289 289 289 290 289 287 285 284 287 287 287 288
308 308 308 306 304 304 303 301 300 299 298 298 296 295 294 293 292 292 291 290 290 290 290 289 289 290 289 288 288 288 288 287 287 288 288 286 285 283 284 285 287 287 287
306 305 304 303 303 302 301 300 298 297 297 296 295 292 292 291 292 292 290 289 289 289 288 288 288 288 288 287 286 286 286 287 287 287 286 285 283 282 283 284 286 287 287
306 304 303 302 301 300 298 297 296 295 295 293 291 291 291 290 290 290 289 288 287 287 287 286 286 286 286 286 286 285 285 285 285 285 285 283 282 281 282 285 285 286 287
305 303 302 301 299 298 297 295 295 294 293 291 290 290 289 290 288 288 288 287 286 286 285 284 283 283 284 284 284 285 285 284 284 283 283 281 280 281 282 283 284 283 285
304 303 301 300 298 297 296 294 291 291 291 291 291 291 288 288 287 288 287 286 285 285 284 283 282 282 282 282 283 284 283 284 284 282 281 280 280 280 281 282 283 282 279
303 301 300 298 296 296 294 292 290 292 291 292 290 289 289 286 286 287 286 285 284 284 283 282 281 282 282 281 282 282 282 283 283 281 280 279 280 280 281 281 281 282 281
301 300 298 295 293 293 292 291 291 294 292 290 290 290 286 284 285 286 285 285 285 284 283 282 283 282 281 282 281 281 281 281 281 280 279 279 279 279 281 280 281 282 281
300 298 296 295 294 294 294 293 291 291 291 290 289 289 284 283 283 284 284 284 283 283 282 282 281 280 280 281 281 281 281 281 280 280 280 278 278 279 279 280 281 282 280
298 295 294 294 293 292 291 290 289 289 288 287 287 285 283 282 281 282 282 282 282 282 281 280 280 280 279 280 280 280 280 280 280 279 279 278 278 278 279 279 279 279 278
295 294 293 293 292 290 288 287 288 287 287 285 285 284 282 281 281 282 282 282 281 280 279 279 279 278 279 279 279 279 279 279 278 279 279 278 278 278 278 278 278 278 277
294 294 293 292 290 289 288 287 287 286 285 283 283 282 282 281 281 282 282 282 282 281 281 279 279 278 278 278 279 279 279 279 278 278 278 278 277 277 278 278 277 278 277
293 293 292 291 290 289 289 287 286 284 283 283 282 281 281 280 280 281 282 281 281 281 280 278 278 278 277 277 278 278 278 278 278 278 278 277 277 277 276 276 276 276 276
292 292 291 290 289 287 287 287 285 283 283 282 282 281 280 280 279 279 280 280 280 280 278 278 278 277 277 277 278 277 278 277 278 278 277 277 276 276 276 276 276 276 276
291 291 290 289 289 288 285 284 283 283 283 283 283 282 281 280 280 278 278 278 278 278 277 277 277 276 277 277 277 277 277 277 277 276 276 275 275 275 275 275 275 275 275
290 289 289 288 286 286 284 283 283 284 284 283 284 283 282 281 279 278 277 277 278 276 276 276 276 277 277 277 277 276 276 276 275 275 275 275 275 275 275 274 274 274 274
290 288 288 288 287 285 283 283 283 283 283 284 284 283 282 281 280 279 278 278 276 276 277 277 277 277 276 276 276 276 276 274 275 275 275 275 275 275 274 274 273 273 273
288 288 288 288 287 286 284 284 283 283 283 283 283 283 282 281 281 280 278 277 275 276 277 277 277 277 276 275 275 275 275 275 274 274 275 274 274 274 273 273 272 272 272
287 287 287 287 286 285 283 283 282 282 281 281 281 281 280 279 279 279 277 276 275 275 277 277 276 276 275 275 275 275 275 274 274 274 274 274 273 273 272 272 271 271 271
288 287 287 286 285 284 284 283 282 281 280 279 278 278 277 277 277 276 275 276 276 275 275 275 275 275 275 275 275 274 274 273 274 273 273 273 273 272 272 271 271 270 270
287 287 286 286 285 284 284 283 282 281 281 280 279 279 278 277 276 276 275 276 276 276 275 275 275 274 274 274 274 274 273 273 273 273 272 272 272 271 271 270 270 270 269
287 286 286 285 285 284 283 283 282 282 281 281 280 280 279 277 277 277 276 276 276 275 275 275 275 274 274 274 273 273 274 273 273 273 272 272 271 271 270 269 269 269 268
286 286 285 284 284 283 283 282 282 282 281 281 281 280 279 278 278 278 277 276 276 275 275 274 274 274 274 274 273 273 273 273 273 273 272 271 271 270 270 269 269 268 267
285 285 284 284 283 283 283 282 282 281 281 280 280 280 279 278 278 277 277 276 276 275 275 274 273 274 274 273 273 272 272 272 272 271 271 270 270 270 269 269 268 268 267
284 284 283 283 283 282 282 281 281 281 280 280 280 280 279 278 277 277 277 276 276 275 275 274 274 273 273 273 272 272 272 271 271 270 270 270 270 269 269 269 268 266 265
283 283 283 282 282 282 281 281 281 281 280 280 280 279 279 278 277 277 277 276 276 275 275 275 274 273 273 272 271 272 271 270 270 270 269 269 269 268 268 267 267 266 266
Wind_Speed
27 30 30 31 30 30 32 31 29 25 23 20 18 16 14 12 10 8 5 6 5 4 2 2 1 4 5 2 2 3 5 5 3 5 6 16 17 16 12 12 7 15 13
27 29 31 30 31 31 32 30 28 25 22 21 19 17 14 12 10 8 8 7 6 6 4 4 8 3 2 2 2 4 1 5 6 6 8 14 15 14 7 12 6 13 18
22 24 28 32 33 32 32 32 27 26 24 22 20 19 16 13 10 10 10 10 9 9 9 9 11 10 9 3 3 5 4 4 3 5 5 13 12 8 7 6 10 15 15
27 29 25 28 32 32 32 31 28 28 24 21 19 19 15 12 11 11 11 10 11 11 9 8 7 5 6 6 5 7 6 6 5 3 3 11 10 5 7 10 12 12 11
32 32 29 31 32 34 32 27 26 26 24 23 21 18 16 14 16 15 10 10 10 8 7 6 5 4 5 3 3 5 5 8 7 2 3 8 7 7 10 12 12 13 11
32 33 34 35 38 34 30 27 24 27 25 22 18 17 17 17 18 18 13 10 7 5 5 8 8 7 5 5 5 5 5 5 6 2 2 3 8 9 8 10 11 11 13
34 33 38 38 37 33 32 33 32 26 22 19 18 18 18 16 21 19 16 16 14 11 6 5 8 7 7 6 7 7 6 7 7 6 6 8 10 10 8 7 10 8 12
33 37 38 35 31 31 31 31 29 25 24 22 20 16 15 21 23 23 21 17 19 18 16 12 9 10 9 7 7 8 10 11 10 8 9 10 13 13 9 8 8 2 7
34 37 37 38 33 29 29 33 31 27 23 21 18 16 16 23 24 22 18 14 16 16 15 13 10 11 8 8 8 8 10 11 11 9 10 11 11 13 13 9 7 7 1
31 34 33 27 28 32 30 28 29 26 24 23 20 17 16 22 23 17 12 12 12 11 11 11 12 10 9 8 9 9 9 11 10 9 10 8 9 11 11 14 15 14 14
30 28 27 27 26 27 29 28 24 23 22 20 19 16 15 20 22 21 14 8 8 10 12 13 12 11 11 9 9 9 8 10 9 8 10 8 8 9 11 13 13 15 17
25 27 26 25 26 24 25 24 21 21 20 22 20 17 16 19 21 21 19 15 11 12 10 13 13 11 10 9 9 9 8 8 7 6 8 7 8 10 11 12 13 14 16
25 25 25 24 22 23 24 24 22 20 20 19 18 17 15 17 23 23 20 19 21 16 11 14 14 12 10 9 8 7 6 6 6 6 8 8 8 10 11 11 14 15 17
23 25 25 24 25 24 23 22 22 21 20 18 18 16 15 15 19 23 23 21 21 12 14 16 14 12 10 8 8 7 6 5 5 6 7 8 8 9 11 11 11 11 8
21 23 26 27 26 24 22 21 17 15 15 16 14 14 15 14 14 20 20 19 17 13 14 14 13 12 10 8 7 6 5 5 4 6 6 6 7 7 7 10 9 7 7
22 25 28 28 25 24 22 18 17 16 15 13 12 12 11 10 11 13 15 16 16 16 15 13 11 8 7 6 6 5 5 4 3 4 4 4 5 6 7 7 9 8 6
21 26 28 27 25 25 24 23 24 21 19 17 17 17 14 14 13 12 12 12 15 17 13 11 10 10 9 7 6 3 2 2 1 1 2 3 3 4 5 5 7 10 8
19 24 27 26 24 23 22 21 21 21 22 21 18 17 15 15 15 14 11 15 18 16 12 10 11 11 9 8 7 6 4 3 2 2 2 3 3 3 3 5 4 10 9
16 19 23 21 20 19 17 15 13 19 20 20 20 18 16 15 17 16 12 14 16 16 13 13 13 12 12 11 9 7 5 4 3 4 4 4 4 4 3 6 6 8 8
11 16 18 19 18 17 16 13 11 12 13 14 15 15 15 16 16 16 18 13 10 12 13 13 12 12 12 11 8 8 7 7 6 5 5 6 5 5 5 7 6 9 7
14 17 16 16 16 16 17 16 14 13 12 10 10 12 12 14 12 12 17 15 13 13 13 14 13 13 13 11 9 8 9 9 8 8 8 9 8 7 7 7 7 8 8
15 17 17 16 17 18 18 15 14 15 15 14 15 13 11 13 9 8 9 13 14 14 14 14 14 12 11 12 11 12 11 10 11 10 10 9 9 9 8 9 8 9 12
13 15 15 14 14 15 16 16 16 17 17 17 17 16 16 17 15 16 15 15 13 15 15 14 13 13 12 13 13 12 13 12 13 11 9 10 10 10 11 11 10 11 11
12 13 14 15 14 15 16 19 20 19 17 17 19 17 16 19 17 18 17 16 13 12 12 13 13 13 13 12 13 14 15 15 14 13 11 11 12 12 13 14 13 12 12
12 13 11 13 14 15 16 15 14 14 15 16 16 14 12 16 19 19 17 15 13 11 10 9 11 13 13 12 13 14 13 11 12 13 14 13 14 14 14 14 13 12 12
12 12 11 11 13 12 12 11 12 12 14 14 15 15 12 12 16 18 18 16 13 12 11 9 10 12 12 12 13 15 13 13 14 13 14 15 15 14 14 14 15 16 17
Wind_Direction
235 224 216 216 209 210 208 210 209 202 197 187 189 187 183 178 175 188 185 192 197 182 200 183 149 162 188 200 66 38 27 342 354 342 349 306 322 336 342 358 359 332 348
238 227 223 216 211 212 211 210 204 195 192 190 185 184 181 178 176 178 182 177 171 157 178 174 146 167 169 171 120 81 27 31 5 22 322 313 327 347 21 358 342 347 2
234 234 226 216 212 214 215 210 199 189 191 191 185 180 176 174 186 195 194 184 179 181 196 195 185 184 179 169 160 170 156 131 33 59 314 305 314 355 36 16 357 355 5
227 224 218 219 213 207 209 207 194 190 189 186 180 178 174 171 183 194 190 188 184 201 208 209 205 195 187 174 187 146 124 126 105 107 283 289 315 30 64 69 3 342 350
225 221 215 210 206 208 210 206 195 192 187 183 182 175 167 181 178 173 183 183 183 204 196 176 162 157 160 168 127 143 143 132 126 189 229 283 354 38 70 74 24 357 352
229 217 208 210 207 211 209 199 184 181 189 185 179 178 167 187 180 170 174 170 168 202 183 158 149 129 127 121 116 117 114 93 108 91 312 3 22 50 82 81 59 7 25
221 212 207 205 204 206 199 190 189 187 190 189 180 184 194 188 174 164 171 164 161 171 193 171 148 153 135 130 109 100 98 86 86 92 76 45 36 43 61 92 79 354 19
219 214 205 200 197 199 195 193 193 194 194 186 189 191 184 174 171 176 184 187 189 189 191 192 183 166 160 141 122 115 104 95 89 80 66 54 47 42 38 70 95 5 11
224 211 206 211 213 211 203 197 192 192 187 182 187 193 178 176 175 185 197 194 189 189 192 185 171 166 165 143 135 125 113 104 96 84 68 53 46 48 50 59 90 167 24
224 209 204 208 212 202 195 191 189 187 179 179 188 196 178 179 177 179 189 193 185 182 172 167 162 161 156 152 138 125 115 105 101 91 77 56 48 53 55 57 59 59 56
217 205 204 212 204 197 189 189 184 181 180 182 192 190 179 178 180 173 159 180 168 167 167 163 157 154 148 143 128 121 113 109 99 90 82 63 51 51 58 60 62 57 55
211 209 209 205 201 195 192 185 182 181 180 186 189 186 183 182 182 173 169 166 171 203 185 166 158 155 146 142 136 126 114 106 101 90 85 70 54 47 43 48 49 47 42
208 207 210 204 198 195 192 184 176 176 183 180 178 180 185 182 185 182 180 180 187 203 175 164 160 159 153 148 138 119 115 120 107 89 76 67 55 49 44 46 55 38 25
213 206 200 194 190 189 186 184 180 178 181 179 180 183 190 194 192 191 193 195 198 194 167 165 162 164 162 159 141 126 123 108 94 83 73 63 52 43 31 38 49 63 35
207 201 195 192 188 183 179 176 175 183 187 184 192 196 196 202 192 189 194 191 194 187 176 169 166 164 162 158 144 136 131 115 95 86 81 78 50 50 48 22 29 52 47
198 192 192 187 182 174 164 157 165 180 184 188 204 213 199 211 192 174 175 184 181 178 174 174 168 160 171 166 144 136 127 109 94 78 69 57 54 43 45 28 4 14 22
198 194 190 187 180 171 175 180 177 182 190 190 191 199 203 207 210 218 211 186 175 180 171 178 178 184 179 174 150 189 143 144 160 79 19 39 26 34 20 11 345 349 7
195 197 191 187 184 183 188 194 196 195 193 191 197 205 204 215 218 230 216 196 182 179 174 190 185 188 181 192 190 207 211 212 222 284 330 349 7 13 355 336 337 333 7
199 190 190 186 181 181 183 193 194 196 198 200 203 207 216 222 222 233 209 191 188 187 186 197 200 193 186 207 213 218 233 250 265 280 306 321 338 342 322 323 333 330 354
191 181 183 180 182 182 185 188 183 182 189 196 201 205 199 193 191 184 173 167 192 198 200 200 202 202 209 222 224 224 231 240 242 257 285 296 310 319 305 311 318 325 332
176 174 179 181 181 181 187 191 192 188 191 194 196 208 207 197 193 195 190 185 196 200 213 207 217 217 223 231 236 232 227 248 260 269 272 284 309 308 307 313 308 312 310
178 178 181 184 188 191 193 195 184 181 187 186 199 208 217 192 197 214 202 215 211 204 222 220 231 231 231 234 235 243 250 249 265 266 271 290 292 299 300 295 305 295 300
183 185 184 183 188 185 182 185 185 186 188 195 204 211 203 195 204 211 224 233 231 220 225 229 235 240 242 242 243 243 255 261 261 276 285 286 291 291 293 294 289 289 291
170 173 175 177 182 181 182 186 190 199 205 197 208 215 217 209 207 218 231 241 246 246 237 234 235 246 254 250 251 252 253 262 274 280 282 285 289 287 287 294 294 290 291
164 170 174 180 183 185 194 199 198 193 196 198 214 222 226 210 209 227 239 245 254 253 245 236 241 251 260 261 260 259 265 269 272 276 283 288 290 292 293 295 299 301 293
165 168 177 186 178 186 189 186 194 204 205 204 210 227 236 214 212 226 238 251 253 254 251 251 256 259 262 263 262 272 273 274 274 276 279 284 290 294 294 289 286 287 290